NOAA 16 DEB, 41250

Orbit data source: Space-Track

NOAA 16 DEB, 41250 is space debris in SSO originally from a launch on Thu, 21 Sep 2000 UTC launched from the Air Force Western Test Range (AFWTR). Debris objects in space refer to the collection of defunct objects orbiting the Earth. Examples of debris include non-operational satellites, rocket bodies, and fragments generated from explosions, collisions, or faulty payload assembly.

Loading next visibility...
Identifier
41250, 2000-055FA
Orbit
SSO
Country
Flag of USUS
Related business
Manufacturer
Unknown
Mission
Spacecraft
Bus & Motor
Unknown
Mass
Unknown
Launch date (UTC)
2000-09-21 (25 years ago)
Launch vehicle
Unknown
Launch site
Air Force Western Test Range (AFWTR)
Object type
Payload
Rocket body
Debris
Shape & HBR
Unknown shape, 0.1 m
Radar Cross Section
Small (<0.1 m²)

Expand to show TLE details & history
Last TLE update: 5 days ago

TLE from 5 days ago
0 NOAA 16 DEB
1 41250U 00055FA  26029.38601982  .00694403  00000-0  23296-1 0  9997
2 41250  98.9803 242.2291 0003706  12.7337 347.3991 15.28672424525269
Epoch: 2026-01-29T09:15Z
TLE epoch observation values (Epoch: 2026-01-29T09:15:52.112Z)
Latitude
-0.00001°
Longitude
-25.3775°
Altitude
480.351 km
Speed
7.627 km/s
True Right ascension
16h 08m 54s
True Declination
0° 00' 00"
Sunlit
Object was in daylight at epoch
Visualization orbit readout
Latitude
Unknown
Longitude
Unknown
Altitude
Unknown
Speed
Unknown
Apparent Right ascension
Unknown
Apparent Declination
Unknown
Sunlit
N/A
Visualization observer readout
Local Sidereal Time
15:15:17
Azimuth
Unknown
Elevation
Unknown
Doppler factor
Unknown
Orbital elements
Apogee altitude
479.349 km
Perigee altitude
474.268 km
Semi-major axis
6,854.946 km
Eccentricity
0.00037
Inclination
98.9803°
RAAN
242.2291°
Arg. of periapsis
12.7337°
True anomaly
347.38983°
Mean anomaly
347.3991°
Eccentric anomaly
347.39447°
Mean motion
3.82417 °/min
Orbital period
94.14 mins
BSTAR
0.023296
Loading maneuver chart data...
Computing Atmospheric mass density...
Loading historical data...
Loading historical data...
Loading historical data...
Loading historical data...
Loading historical data...
Loading historical data...
Loading historical data...

Documentation

Showing up to 5 results
|